Wind_Speed
17 18 18 19 19 19 19 19 19 19 20 22 23 24 25 26 26 26 27 28 27 27 28 28 29 29 30 30 30 31 31 32 32 32 32 33 34 34
16 17 18 17 18 18 19 20 20 20 21 22 23 24 25 25 25 26 26 27 27 28 28 29 28 29 28 29 29 29 30 30 31 32 32 32 33 34
16 17 18 18 18 19 20 20 21 21 21 22 22 23 24 24 25 26 26 26 27 28 28 28 29 29 28 29 29 29 29 30 32 32 33 33 33 34
17 17 18 18 19 19 19 20 20 21 21 21 22 22 23 24 25 26 26 26 26 27 28 28 28 29 29 30 30 30 30 30 31 32 33 34 35 35
17 17 18 18 18 19 20 21 21 21 22 22 22 23 23 24 24 24 25 26 26 26 27 28 28 28 29 30 30 31 31 31 32 33 34 35 36 37
16 17 18 18 18 19 20 21 21 22 23 23 23 23 23 24 24 24 24 25 26 26 26 26 27 27 28 29 30 31 31 32 32 34 34 35 36 38
16 17 18 19 19 19 20 21 21 22 22 23 23 24 24 24 24 24 24 25 25 26 26 26 26 27 28 28 29 30 30 31 32 33 34 35 36 37
18 18 19 19 20 20 20 21 21 22 23 23 24 24 24 24 24 24 24 25 25 25 26 26 27 27 27 27 27 29 30 31 32 33 34 35 36 37
18 18 19 19 19 20 20 21 21 21 22 22 23 23 23 24 24 24 24 25 25 26 26 26 27 27 28 27 27 27 28 30 31 32 33 34 36 37
18 18 19 19 19 20 20 21 21 21 21 22 22 22 23 23 23 23 24 25 25 26 26 26 26 27 28 28 28 28 27 28 29 31 32 33 34 35
18 18 19 19 19 19 20 20 21 22 22 22 22 23 24 25 24 24 24 24 24 24 25 25 26 26 27 28 28 28 28 28 28 29 30 32 33 34
19 19 19 20 20 20 20 20 21 22 22 22 22 23 24 25 25 25 25 24 24 24 25 26 26 26 26 26 27 28 29 29 29 30 30 31 32 34
20 20 20 19 20 20 20 20 21 21 21 21 21 22 23 24 24 24 24 23 23 24 25 25 25 26 26 26 26 27 28 28 29 29 30 31 32 33
20 20 19 19 20 20 20 20 20 20 20 20 21 22 23 23 22 22 22 22 22 23 24 24 24 24 25 26 26 27 27 27 28 29 30 30 32 32
20 19 19 19 19 19 20 21 21 20 21 21 21 22 23 23 21 21 22 22 22 23 23 24 23 24 25 26 26 26 26 26 27 27 29 29 30 32
19 19 19 19 19 19 20 21 21 21 22 22 22 23 24 23 22 22 22 23 23 24 24 24 24 24 24 25 25 25 25 25 26 27 28 29 29 30
18 18 18 18 19 19 20 20 21 21 22 23 23 23 22 21 21 22 22 22 22 23 24 25 26 26 26 26 26 26 26 25 25 26 26 27 28 29
17 17 17 17 17 18 18 19 19 20 21 21 22 22 21 21 21 22 22 23 23 24 24 26 26 27 27 26 26 26 25 25 25 25 25 26 27 29
17 18 17 17 17 17 18 18 18 19 20 20 20 20 20 21 21 22 22 23 24 24 25 26 26 26 26 26 25 26 25 25 25 26 26 26 27 28
17 17 16 17 17 18 18 19 19 20 20 20 20 20 21 21 22 22 22 23 23 23 24 24 25 25 25 25 24 24 25 25 25 25 26 26 26 27
17 17 17 17 17 18 19 19 20 21 20 21 21 22 22 23 22 22 22 22 23 23 23 23 23 24 24 24 24 24 25 26 26 26 26 27 26 27
18 18 18 18 18 19 19 20 20 20 21 21 22 22 23 23 23 22 22 22 22 22 21 21 22 23 23 23 24 23 24 25 26 27 27 26 26 26
17 17 17 18 19 19 20 20 20 21 21 22 23 23 23 22 22 22 21 21 21 20 20 21 21 22 22 23 23 23 23 24 25 25 25 24 24 24
Wind_Direction
272 274 275 273 273 271 270 269 270 271 272 270 269 268 268 268 268 266 265 264 264 263 263 261 261 261 260 259 258 256 255 255 254 253 253 252 251 250
280 279 278 276 277 274 272 271 272 273 274 272 271 271 270 271 270 268 268 266 265 264 264 263 262 262 261 259 258 257 256 256 256 255 253 253 251 250
282 279 279 278 277 275 274 275 275 276 276 275 274 272 272 272 271 269 268 267 265 263 263 263 263 262 261 260 258 257 257 256 256 256 255 253 251 250
283 281 281 281 278 277 275 275 276 277 278 278 277 276 275 274 273 271 269 268 266 264 263 263 263 262 263 261 260 259 259 257 257 257 255 254 251 250
283 283 283 285 280 276 275 277 278 278 279 279 278 278 277 276 274 272 271 268 267 265 263 264 264 264 264 263 262 261 260 260 259 257 255 253 252 251
283 283 284 285 284 282 281 281 280 279 279 279 280 278 277 276 274 273 272 269 268 266 265 265 265 266 266 264 263 263 262 261 260 257 255 254 252 251
287 287 287 286 286 285 284 283 282 282 281 281 282 280 279 276 275 274 272 270 269 267 267 268 268 268 268 266 264 264 263 263 262 260 257 255 253 252
290 290 290 289 287 286 285 284 284 284 284 283 282 282 279 276 274 274 273 272 270 269 269 269 269 269 270 268 267 266 266 264 263 262 260 256 253 252
290 290 289 287 287 285 286 287 287 288 289 286 283 282 278 276 276 275 273 272 272 271 270 269 270 270 271 270 269 268 268 267 267 265 261 257 254 253
293 293 291 289 287 286 286 287 288 291 291 288 286 282 280 280 279 277 275 272 271 271 271 271 271 271 271 272 270 268 268 269 269 266 263 260 256 254
294 294 294 292 290 289 289 289 290 291 292 290 286 284 284 284 281 279 277 274 272 270 271 272 272 272 272 272 272 271 271 270 269 268 264 261 259 258
294 294 294 293 292 292 292 291 292 292 294 292 289 287 286 286 283 280 278 275 272 271 273 274 273 273 272 271 271 271 271 270 270 269 265 261 259 259
293 293 294 296 297 296 295 296 295 295 296 293 290 288 287 286 283 280 278 276 274 273 275 276 276 275 274 272 272 271 270 270 271 269 265 262 260 259
294 294 295 296 297 297 297 298 298 298 298 295 294 291 290 290 286 281 279 278 277 277 277 279 279 279 278 277 274 274 273 272 273 271 267 266 262 259
294 293 293 295 296 297 297 296 296 296 297 297 296 294 293 291 290 286 282 280 278 279 279 279 281 282 282 280 278 276 276 275 274 273 270 267 264 259
295 293 292 293 295 298 299 299 297 298 299 299 298 298 296 293 291 289 286 283 281 281 281 284 285 285 284 282 279 277 276 276 275 275 273 270 266 260
292 292 292 294 296 299 301 300 300 300 301 300 300 301 299 296 294 291 288 286 285 283 283 283 284 285 284 282 280 277 276 276 277 277 275 273 268 262
296 294 294 296 299 301 303 304 304 304 304 304 303 303 301 299 296 292 289 288 288 288 287 286 285 286 285 284 282 280 279 280 280 279 278 276 271 265
294 294 294 296 299 301 304 307 308 308 308 307 306 304 303 302 299 296 293 290 289 289 288 288 287 287 287 286 284 281 281 282 282 280 280 278 274 268
293 294 294 295 297 300 303 306 308 310 311 310 309 308 307 306 303 300 298 297 295 294 293 292 291 291 290 288 285 283 283 284 284 283 282 281 278 272
293 294 295 296 297 299 302 304 305 307 309 310 309 309 308 307 305 302 300 299 298 297 298 297 296 295 294 291 288 285 284 284 284 285 282 281 278 274
289 291 292 295 298 300 302 304 306 307 308 309 309 309 309 307 306 305 303 301 300 299 299 300 300 298 296 293 291 289 287 286 285 285 283 280 278 275
288 290 292 295 300 303 304 305 306 307 308 309 309 309 310 309 308 308 307 306 303 301 302 303 305 304 299 295 294 292 290 290 288 286 284 282 279 278
Height
5764 5764 5765 5765 5764 5764 5764 5765 5766 5766 5766 5766 5766 5766 5766 5766 5766 5766 5767 5767 5768 5768 5769 5769 5770 5770 5771 5772 5773 5775 5776 5778 5779 5781 5783 5785 5788 5790
5759 5759 5759 5759 5759 5759 5759 5759 5759 5760 5760 5759 5759 5759 5759 5759 5759 5759 5759 5759 5759 5760 5760 5761 5761 5762 5763 5764 5764 5766 5767 5769 5770 5772 5774 5776 5778 5780
5755 5755 5754 5754 5754 5754 5753 5753 5753 5753 5753 5753 5752 5752 5752 5752 5751 5751 5751 5751 5751 5751 5752 5752 5753 5753 5754 5755 5756 5757 5758 5760 5761 5763 5764 5767 5769 5771
5750 5750 5749 5749 5748 5748 5748 5747 5747 5747 5747 5747 5746 5745 5745 5744 5744 5743 5743 5743 5743 5743 5744 5744 5744 5745 5745 5746 5747 5748 5749 5750 5752 5753 5755 5757 5759 5761
5746 5745 5744 5743 5743 5742 5742 5742 5741 5741 5741 5740 5739 5738 5738 5737 5736 5736 5735 5735 5735 5735 5735 5736 5736 5736 5736 5737 5738 5738 5739 5741 5742 5743 5744 5746 5748 5751
5741 5740 5740 5739 5738 5737 5736 5735 5735 5734 5734 5733 5732 5731 5730 5729 5729 5728 5727 5727 5727 5727 5727 5727 5727 5727 5727 5728 5729 5729 5730 5731 5731 5733 5734 5735 5737 5739
5737 5736 5735 5734 5733 5732 5730 5730 5729 5728 5727 5726 5725 5724 5723 5722 5721 5720 5719 5719 5718 5718 5718 5719 5718 5719 5718 5718 5719 5719 5720 5721 5721 5722 5723 5724 5726 5728
5732 5731 5730 5729 5727 5726 5725 5724 5723 5722 5720 5719 5718 5716 5715 5714 5713 5712 5711 5711 5711 5711 5710 5710 5710 5710 5709 5709 5709 5710 5710 5710 5711 5711 5712 5713 5715 5717
5727 5726 5725 5723 5722 5720 5719 5718 5717 5715 5713 5712 5710 5709 5707 5706 5705 5704 5703 5703 5703 5702 5702 5702 5701 5701 5700 5700 5700 5700 5700 5700 5700 5700 5701 5702 5704 5706
5722 5721 5719 5717 5716 5715 5713 5712 5710 5708 5707 5705 5703 5702 5700 5699 5697 5697 5695 5695 5695 5694 5693 5693 5693 5692 5691 5691 5690 5690 5690 5690 5690 5690 5691 5692 5693 5695
5717 5715 5713 5712 5710 5709 5707 5706 5704 5702 5699 5697 5696 5694 5693 5691 5689 5689 5688 5687 5687 5686 5685 5685 5684 5683 5683 5682 5681 5681 5681 5680 5680 5680 5681 5681 5682 5683
5712 5710 5708 5706 5704 5702 5701 5699 5697 5695 5693 5691 5689 5687 5685 5683 5681 5680 5680 5679 5679 5678 5677 5676 5676 5675 5674 5674 5673 5672 5671 5671 5671 5670 5670 5671 5672 5672
5706 5704 5702 5700 5698 5696 5694 5692 5690 5688 5686 5684 5682 5680 5678 5676 5674 5673 5672 5671 5671 5670 5669 5668 5667 5666 5665 5665 5664 5663 5662 5661 5661 5660 5660 5661 5661 5662
5700 5698 5696 5694 5692 5690 5688 5686 5684 5682 5680 5677 5675 5673 5671 5669 5667 5665 5664 5663 5663 5662 5661 5660 5659 5658 5657 5656 5655 5654 5653 5652 5651 5650 5650 5650 5650 5651
5694 5692 5690 5688 5687 5685 5683 5681 5678 5676 5674 5671 5669 5666 5664 5662 5659 5658 5657 5656 5655 5654 5653 5652 5651 5650 5648 5647 5646 5645 5643 5642 5641 5641 5640 5639 5640 5640
5688 5687 5685 5683 5681 5679 5677 5675 5672 5670 5667 5665 5662 5660 5657 5655 5653 5651 5650 5649 5648 5647 5645 5644 5642 5641 5640 5638 5636 5635 5634 5633 5632 5631 5630 5630 5630 5630
5682 5681 5679 5678 5676 5674 5671 5669 5666 5664 5661 5658 5656 5653 5650 5648 5646 5644 5643 5641 5640 5639 5637 5636 5634 5632 5631 5629 5628 5626 5625 5624 5623 5622 5621 5620 5620 5620
5677 5676 5674 5672 5671 5668 5666 5663 5661 5658 5655 5652 5649 5646 5644 5641 5639 5637 5636 5634 5633 5631 5629 5627 5625 5623 5622 5620 5619 5617 5616 5615 5614 5612 5611 5611 5611 5610
5672 5670 5669 5667 5666 5663 5661 5658 5656 5653 5650 5647 5644 5641 5638 5635 5633 5630 5628 5627 5625 5623 5620 5618 5616 5614 5613 5612 5610 5608 5607 5606 5604 5603 5602 5601 5601 5601
5667 5665 5664 5662 5660 5658 5656 5653 5651 5648 5645 5641 5638 5635 5632 5629 5626 5624 5621 5619 5617 5614 5612 5610 5607 5605 5603 5602 5601 5600 5597 5596 5595 5594 5593 5592 5591 5591
5661 5660 5658 5657 5655 5653 5650 5648 5645 5642 5639 5636 5633 5630 5627 5623 5620 5617 5615 5612 5609 5607 5605 5602 5599 5597 5594 5593 5592 5591 5589 5587 5586 5585 5584 5583 5582 5581
5656 5654 5653 5651 5649 5647 5644 5642 5639 5636 5634 5631 5627 5624 5621 5617 5614 5611 5608 5605 5602 5600 5598 5595 5592 5589 5587 5585 5583 5581 5580 5578 5576 5574 5574 5573 5572 5572
5650 5648 5647 5645 5644 5641 5639 5636 5634 5631 5628 5625 5621 5618 5614 5611 5608 5604 5602 5599 5596 5593 5591 5589 5585 5582 5579 5577 5575 5573 5571 5569 5567 5565 5564 5563 5563 5563